Regional Weather Roundup
Issued by NWS

Home | Current Version | Previous Version | Graphics & Text | Print | Product List | Glossary On
Versions: 1 2 3 4 5 6 7 8 9 10 11 12 13 14 15 16 17 18 19 20 21 22 23 24 25 26 27 28 29 30 31 32 33 34 35 36 37 38 39 40 41 42 43 44 45 46 47 48 49 50
000
ASUS43 KLMK 100610
RWRKY
KENTUCKY REGIONAL WEATHER ROUNDUP
NATIONAL WEATHER SERVICE LOUISVILLE KY
100 AM EST SAT DEC 10 2016

NOTE "FAIR" INDICATES FEW OR NO CLOUDS BELOW 12,000 FEET
WITH NO SIGNIFICANT WEATHER AND/OR OBSTRUCTIONS TO VISIBILITY.

KYZ001>023-026-027-061>063-070>075-100700-
WESTERN AND SOUTH CENTRAL KENTUCKY

CITY           SKY/WX    TMP DP  RH WIND       PRES   REMARKS
PADUCAH        CLEAR     17  13  84 CALM      30.59F
HENDERSON      CLEAR     18  12  79 CALM      30.60F
OWENSBORO      CLEAR     21  18  88 CALM      30.60S
HOPKINSVILLE   CLEAR     22  16  75 CALM      30.59S
BOWLING GREEN  CLEAR     20  14  77 CALM      30.59F
GLASGOW        CLEAR     17  15  90 CALM      30.57F
$$

KYZ024-025-028>034-038-045-046-053-100700-
NORTH CENTRAL KENTUCKY

CITY           SKY/WX    TMP DP  RH WIND       PRES   REMARKS
LOUISVILLE/SDF MOCLDY    25  12  58 W8        30.58S WCI  16
LOUISVILLE/LOU CLOUDY    24  14  65 W5        30.59S WCI  18
FORT KNOX      MOCLDY    18  12  79 CALM      30.55S
$$

KYZ035>037-039>044-047>052-055>060-089>105-100700-
NORTHEAST KENTUCKY

CITY           SKY/WX    TMP DP  RH WIND       PRES   REMARKS
LEXINGTON      CLOUDY    21  14  74 CALM      30.54S
COVINGTON      PTCLDY    20  14  77 SW6       30.53R WCI  12
FRANKFORT      CLEAR     18  11  74 CALM      30.55R
$$

KYZ054-064>069-076>088-106>120-100700-
SOUTHEAST KENTUCKY

CITY           SKY/WX    TMP DP  RH WIND       PRES   REMARKS
JACKSON        CLEAR     19  13  77 CALM      30.50S
LONDON         CLEAR     17  13  84 CALM      30.52F
SOMERSET       CLEAR     18  16  93 CALM      30.57S
MIDDLESBORO    CLEAR     19  16  91 CALM      30.53F
MONTICELLO     CLEAR     11   7  84 CALM      30.57S
$$




USA.gov is the U.S. government's official web portal to all federal, state and local government web resources and services.